[[{"header":{"parameterUnit":"m.s-1","parameterCategory":1,"la1":30.2991,"la2":30.254,"lo1":-89.0895,"lo2":-89.0444,"dy":0.0017,"dx":0.0017,"nx":28,"ny":28,"refTime":"2024-12-17T09:00:00:Z","depth":0,"parameterNumber":2,"parameterNumberName":"U-component_of_WINDS"},"data":[0,0,0,0,0,0,0,0,0,0,0,0,0,0,0,0,0,0,0,0,0,0,0,0,0,0,0,0,0,0,0,0,0,0,0,0,0,0,0,0,0,0,0,0,0,0,0,0,0,0,0,0,0,0,0,0,0,0,2.4689,2.469,0,2.4798,2.4799,2.48,2.4763,2.476,2.4758,2.4756,2.4875,2.488,2.4886,0,0,0,0,0,0,0,0,0,0,0,0,0,2.4458,2.4462,2.4689,2.4691,2.4692,2.4798,2.4799,2.4801,2.4763,2.476,2.4757,2.4755,2.4873,2.488,2.4886,0,0,0,0,0,0,0,0,0,0,0,0,0,2.4562,2.4464,2.4689,2.4686,2.4687,2.4797,2.4799,2.4801,2.4764,2.476,2.4757,2.4753,2.4871,2.4879,2.4887,2.501,0,0,2.4912,2.4915,0,0,0,0,0,0,0,0,2.4556,2.457,2.4685,2.4686,2.4687,2.4763,2.4761,2.4871,2.4765,2.4735,2.4756,2.4751,2.4841,2.4852,2.488,2.5015,2.5021,2.4913,2.4918,2.4921,2.4923,0,0,0,0,0,0,0,2.4549,2.4566,2.4732,2.4687,2.4688,2.4682,2.4692,2.4782,2.4807,2.4737,2.4735,2.4748,2.4841,2.4872,2.4883,2.5022,2.4912,2.492,2.4925,2.4928,2.5266,2.527,0,0,0,0,0,0,2.454,2.456,2.4729,2.4736,2.4611,2.4689,2.4701,2.4742,2.4806,2.4812,2.4751,2.4745,2.486,2.4873,2.4887,2.5037,2.4921,2.4929,2.4933,2.5262,2.5267,2.5272,0,0,0,0,0,0,2.4535,2.4555,2.4725,2.4647,2.4668,2.4697,2.4744,2.4747,2.4778,2.4816,2.4821,2.4777,2.4858,2.4875,2.4979,2.504,2.4932,2.494,2.5257,2.5264,2.5269,2.5336,0,0,0,0,0,0,2.4529,2.4554,2.4599,2.4648,2.4672,2.4813,2.4747,2.4751,2.4791,2.4785,2.4843,2.4849,2.4856,2.4968,2.4988,2.5049,2.4946,2.5252,2.526,2.5268,2.5329,2.5344,2.5357,0,0,0,0,0,2.452,2.4615,2.4601,2.4622,2.4729,2.4817,2.4831,2.4835,2.4796,2.4843,2.4868,2.4847,2.503,2.4978,2.5001,2.5066,2.5248,2.5258,2.5267,2.5323,2.5341,2.5356,0,0,0,0,0,0,2.4575,2.4621,2.4607,2.4719,2.4764,2.481,2.487,2.4855,2.4914,2.4906,2.4912,2.4925,2.5033,2.5059,2.5002,2.5189,2.5134,2.5148,2.5168,2.5186,2.52,2.5192,2.4953,0,0,0,0,0,2.4599,2.4664,2.4702,2.4798,2.4821,2.4841,2.488,2.4879,2.4927,2.4947,2.4979,2.5029,2.5097,2.5143,2.5208,2.5332,2.5345,2.5388,2.5402,2.5413,2.5426,2.5496,2.5516,2.5302,2.5302,2.5302,0,0,2.4652,2.4685,2.4726,2.481,2.4844,2.4914,2.4858,2.4934,2.4987,2.4959,2.5059,2.5085,2.5141,2.5256,2.5308,2.5281,2.5488,2.5425,2.5433,2.5441,2.5508,2.5528,2.5546,2.5308,2.5307,2.5306,0,0,2.4783,2.4814,2.4897,2.4933,2.4985,2.4998,2.5018,2.5067,2.5082,2.5182,2.5163,2.5227,2.5345,2.5386,2.5422,2.5569,2.5554,2.559,2.5665,2.5733,2.575,2.5765,2.582,2.584,2.5603,2.5603,2.5603,0,2.4843,2.4945,2.4943,2.5021,2.506,2.5034,2.5122,2.5157,2.5229,2.5258,2.5225,2.5373,2.5409,2.5534,2.557,2.5599,2.5625,2.5585,2.5747,2.5762,2.5776,2.5829,2.5849,2.5607,2.5607,2.5606,2.5606,0,2.5017,2.5088,2.515,2.5217,2.5263,2.5345,2.5359,2.5405,2.54,2.5418,2.5521,2.5563,2.5637,2.5666,2.5663,2.5792,2.5774,2.5744,2.5689,2.5801,2.5851,2.5871,2.5613,2.5612,2.5611,2.561,0,0,2.5188,2.5252,2.5276,2.5307,2.5362,2.5419,2.55,2.557,2.5611,2.5661,2.5733,2.5832,2.5805,2.5847,2.5848,2.5907,2.6025,2.5871,2.5873,2.5901,2.6172,2.6196,2.6219,2.6013,2.6017,2.602,2.6169,0,2.5327,2.5467,2.5468,2.5599,2.5667,2.5644,2.5715,2.5759,2.5777,2.5839,2.586,2.5932,2.5889,2.5914,2.5972,2.5998,2.608,2.5987,2.6083,2.6086,2.6072,2.6245,2.627,2.6409,2.6188,2.6191,2.6193,0,2.5507,2.5561,2.5698,2.5744,2.5773,2.5837,2.5901,2.5959,2.6009,2.6019,2.6064,2.6057,2.6144,2.6083,2.6204,2.6141,2.618,2.6199,2.6205,2.6216,2.6149,2.6264,2.6453,2.6475,2.6224,2.6221,2.6219,0,2.5622,2.5728,2.5825,2.5851,2.5907,2.5953,2.5979,2.6025,2.6067,2.6124,2.6152,2.622,2.6258,2.6311,2.6323,2.6277,2.6446,2.6386,2.6459,2.6459,2.6498,2.6496,2.6699,2.6518,2.6518,2.6518,2.6517,0,2.5778,2.5864,2.5877,2.5937,2.6033,2.6034,2.613,2.6152,2.6193,2.6259,2.6243,2.6306,2.6316,2.6382,2.6392,2.6493,2.651,2.6522,2.6525,2.6525,2.6524,2.6554,2.6546,2.6523,2.6522,2.6521,2.652,0,2.5924,2.5936,2.6039,2.6083,2.6096,2.6165,2.6203,2.6262,2.6277,2.6361,2.6381,2.6407,2.6484,2.65,2.6592,2.6599,2.672,2.6711,2.6702,2.6703,2.6776,2.677,2.7007,2.704,2.6835,2.6837,2.6839,0,2.6025,2.609,2.6139,2.618,2.6208,2.6275,2.6317,2.6321,2.6367,2.6428,2.648,2.6554,2.6614,2.6739,2.6768,2.6839,2.6834,2.6912,2.6845,2.6844,2.6839,2.6836,2.6844,2.6926,2.6928,2.693,2.6931,0,2.6203,2.6205,2.6265,2.6328,2.6378,2.6428,2.6476,2.6511,2.6522,2.6574,2.6651,2.6697,2.679,2.6866,2.6936,2.6966,2.6953,2.6951,2.6973,2.6976,2.697,2.6978,2.6741,2.6947,2.6946,2.6944,2.6944,2.6943,2.6332,2.6389,2.6433,2.6501,2.6536,2.6581,2.6638,2.666,2.6723,2.6797,2.6796,2.6881,2.693,2.7023,2.7057,2.7126,2.7102,2.7132,2.7141,2.7149,2.7157,2.6956,2.7139,2.7138,2.7138,2.7137,2.7137,0,2.6512,2.6538,2.66,2.6666,2.672,2.6698,2.675,2.6798,2.6872,2.6917,2.6976,2.7065,2.7138,2.7172,2.7245,2.7294,2.729,2.7313,2.7312,2.7319,2.7173,2.7148,2.7316,2.7316,2.7316,2.7315,2.7315,2.7315,2.6613,2.6709,2.6716,2.6831,2.6857,2.6938,2.697,2.7013,2.7049,2.7149,2.7208,2.7228,2.727,2.7346,2.7413,2.7421,2.7451,2.7478,2.7484,2.7347,2.7329,2.7312,2.7289,2.7484,2.7484,2.7625,2.7627,2.7628]},{"header":{"parameterUnit":"m.s-1","parameterCategory":1,"la1":30.2991,"la2":30.254,"lo1":-89.0895,"lo2":-89.0444,"dy":0.0017,"dx":0.0017,"nx":28,"ny":28,"refTime":"2024-12-17T09:00:00:Z","depth":0,"parameterNumber":3,"parameterNumberName":"V-component_of_WINDS"},"data":[0,0,0,0,0,0,0,0,0,0,0,0,0,0,0,0,0,0,0,0,0,0,0,0,0,0,0,0,0,0,0,0,0,0,0,0,0,0,0,0,0,0,0,0,0,0,0,0,0,0,0,0,0,0,0,0,0,0,-0.5111,-0.5111,0,-0.5108,-0.5108,-0.5108,-0.5158,-0.516,-0.5161,-0.5163,-0.5157,-0.5155,-0.5154,0,0,0,0,0,0,0,0,0,0,0,0,0,-0.5157,-0.5156,-0.5111,-0.5111,-0.5111,-0.5108,-0.5108,-0.5108,-0.5158,-0.516,-0.5162,-0.5163,-0.5157,-0.5155,-0.5154,0,0,0,0,0,0,0,0,0,0,0,0,0,-0.5144,-0.5156,-0.5111,-0.5135,-0.5138,-0.5108,-0.5108,-0.5108,-0.5158,-0.516,-0.5162,-0.5164,-0.5158,-0.5156,-0.5153,-0.5099,0,0,-0.5147,-0.5146,0,0,0,0,0,0,0,0,-0.5145,-0.5142,-0.5132,-0.5134,-0.5136,-0.5136,-0.5122,-0.5105,-0.5157,-0.515,-0.5163,-0.5165,-0.5148,-0.5147,-0.5141,-0.5099,-0.5098,-0.5147,-0.5145,-0.5144,-0.5144,0,0,0,0,0,0,0,-0.5145,-0.5142,-0.5109,-0.5132,-0.5134,-0.5146,-0.5146,-0.5119,-0.5137,-0.5151,-0.5155,-0.5154,-0.5149,-0.5143,-0.5142,-0.5098,-0.5147,-0.5145,-0.5143,-0.5143,-0.5011,-0.5009,0,0,0,0,0,0,-0.5143,-0.5143,-0.511,-0.5109,-0.5146,-0.5143,-0.5144,-0.5134,-0.5138,-0.514,-0.5152,-0.5156,-0.5146,-0.5144,-0.5142,-0.5079,-0.5144,-0.5142,-0.5141,-0.5014,-0.5011,-0.5009,0,0,0,0,0,0,-0.5144,-0.514,-0.511,-0.5127,-0.5124,-0.5141,-0.5129,-0.5133,-0.5127,-0.5139,-0.5142,-0.5143,-0.5148,-0.5145,-0.511,-0.5079,-0.5141,-0.5139,-0.5016,-0.5013,-0.501,-0.4952,0,0,0,0,0,0,-0.5145,-0.514,-0.512,-0.5126,-0.5123,-0.5078,-0.5127,-0.5131,-0.5123,-0.5129,-0.5131,-0.5133,-0.5149,-0.5113,-0.5107,-0.5078,-0.5138,-0.5019,-0.5015,-0.5011,-0.4957,-0.4948,-0.494,0,0,0,0,0,-0.5147,-0.5103,-0.5118,-0.5114,-0.5098,-0.5076,-0.5074,-0.5094,-0.5121,-0.51,-0.5108,-0.5133,-0.5083,-0.5109,-0.5103,-0.5072,-0.5021,-0.5016,-0.5011,-0.4961,-0.4949,-0.494,0,0,0,0,0,0,-0.5091,-0.5104,-0.5122,-0.5079,-0.5076,-0.5085,-0.506,-0.5081,-0.507,-0.5076,-0.51,-0.51,-0.5061,-0.5063,-0.5091,-0.502,-0.5057,-0.505,-0.5021,-0.501,-0.5001,-0.5002,-0.5136,0,0,0,0,0,-0.5074,-0.5055,-0.5068,-0.5028,-0.5026,-0.5043,-0.5034,-0.505,-0.5048,-0.5047,-0.5052,-0.5048,-0.5032,-0.5021,-0.5006,-0.4957,-0.4959,-0.4934,-0.4925,-0.4917,-0.4912,-0.4887,-0.4876,-0.4992,-0.4992,-0.4993,0,0,-0.5038,-0.5043,-0.5029,-0.5017,-0.5017,-0.4997,-0.5042,-0.5019,-0.5004,-0.5043,-0.5011,-0.5014,-0.5012,-0.497,-0.4952,-0.497,-0.488,-0.4911,-0.4905,-0.4904,-0.4881,-0.487,-0.486,-0.4989,-0.499,-0.499,0,0,-0.4962,-0.4964,-0.4932,-0.4932,-0.4931,-0.4943,-0.4935,-0.4941,-0.4945,-0.4914,-0.4943,-0.4925,-0.4897,-0.4894,-0.4889,-0.4813,-0.4836,-0.4808,-0.4762,-0.4738,-0.4728,-0.472,-0.4694,-0.4685,-0.4802,-0.4802,-0.4802,0,-0.4917,-0.4889,-0.4913,-0.4888,-0.4882,-0.4918,-0.4886,-0.4884,-0.4878,-0.4873,-0.4894,-0.486,-0.486,-0.4819,-0.4801,-0.4795,-0.4787,-0.4808,-0.4728,-0.472,-0.4713,-0.4689,-0.4679,-0.4799,-0.4799,-0.4799,-0.48,0,-0.4835,-0.4815,-0.4789,-0.4785,-0.4776,-0.4747,-0.4766,-0.4753,-0.477,-0.4779,-0.4747,-0.4749,-0.4736,-0.4727,-0.4743,-0.4688,-0.47,-0.4724,-0.4761,-0.4698,-0.4676,-0.4666,-0.4794,-0.4795,-0.4796,-0.4797,0,0,-0.4724,-0.4734,-0.4724,-0.4723,-0.4725,-0.471,-0.4683,-0.4672,-0.4662,-0.4656,-0.4635,-0.461,-0.4633,-0.4627,-0.4642,-0.4621,-0.4562,-0.4648,-0.4648,-0.4633,-0.4503,-0.4486,-0.4475,-0.4577,-0.4575,-0.4574,-0.4504,0,-0.4651,-0.4608,-0.4628,-0.4582,-0.4564,-0.4598,-0.4574,-0.4573,-0.4581,-0.4567,-0.4575,-0.4558,-0.4589,-0.4585,-0.4566,-0.4573,-0.4537,-0.4579,-0.4557,-0.4556,-0.4558,-0.4463,-0.4444,-0.4378,-0.4495,-0.4494,-0.4492,0,-0.4561,-0.4554,-0.4506,-0.4514,-0.4507,-0.4486,-0.4478,-0.4463,-0.4463,-0.447,-0.4464,-0.4485,-0.4458,-0.4495,-0.446,-0.4488,-0.448,-0.4483,-0.4481,-0.448,-0.4521,-0.446,-0.4357,-0.4348,-0.4479,-0.448,-0.4481,0,-0.4487,-0.4465,-0.4434,-0.4432,-0.4439,-0.4424,-0.4426,-0.4427,-0.4419,-0.4412,-0.4407,-0.4396,-0.439,-0.4381,-0.4398,-0.4423,-0.436,-0.4398,-0.4366,-0.4365,-0.4351,-0.4352,-0.4246,-0.4344,-0.4345,-0.4345,-0.4345,0,-0.4405,-0.4374,-0.4401,-0.4382,-0.4349,-0.4372,-0.4339,-0.4344,-0.4346,-0.4328,-0.4356,-0.4338,-0.4361,-0.4346,-0.4359,-0.4328,-0.4325,-0.433,-0.4334,-0.4328,-0.4328,-0.4324,-0.433,-0.4342,-0.4343,-0.4343,-0.4344,0,-0.4316,-0.4333,-0.4301,-0.4311,-0.4313,-0.4288,-0.4296,-0.4279,-0.4289,-0.4266,-0.4262,-0.4278,-0.4261,-0.4277,-0.4261,-0.427,-0.4229,-0.4239,-0.423,-0.4233,-0.42,-0.4204,-0.4089,-0.4076,-0.4181,-0.418,-0.4179,0,-0.4263,-0.4241,-0.4249,-0.4239,-0.424,-0.4225,-0.4218,-0.4239,-0.4231,-0.4229,-0.4212,-0.4198,-0.4188,-0.416,-0.417,-0.4158,-0.4168,-0.4129,-0.4167,-0.4162,-0.4169,-0.4171,-0.4169,-0.4122,-0.412,-0.4119,-0.4119,0,-0.4168,-0.4177,-0.4166,-0.4158,-0.4149,-0.4143,-0.414,-0.413,-0.4153,-0.4142,-0.4126,-0.4119,-0.4103,-0.409,-0.4081,-0.4082,-0.4104,-0.4107,-0.4099,-0.4093,-0.4089,-0.4092,-0.421,-0.4109,-0.411,-0.4111,-0.4111,-0.4112,-0.4096,-0.4078,-0.4082,-0.4069,-0.4069,-0.4065,-0.405,-0.4058,-0.4046,-0.4036,-0.4049,-0.403,-0.4031,-0.4021,-0.402,-0.4005,-0.4022,-0.401,-0.4007,-0.4004,-0.4,-0.4091,-0.4003,-0.4004,-0.4004,-0.4004,-0.4004,0,-0.4003,-0.4007,-0.3995,-0.399,-0.398,-0.4002,-0.4,-0.399,-0.3973,-0.3972,-0.3962,-0.3944,-0.3931,-0.394,-0.3929,-0.3915,-0.3925,-0.3912,-0.3913,-0.3914,-0.3985,-0.3994,-0.3904,-0.3904,-0.3904,-0.3904,-0.3904,-0.3904,-0.3954,-0.3926,-0.3936,-0.3908,-0.3912,-0.3894,-0.3891,-0.3888,-0.3887,-0.3867,-0.3856,-0.3862,-0.3865,-0.3855,-0.3844,-0.3847,-0.3842,-0.3825,-0.3831,-0.3898,-0.3908,-0.3918,-0.3926,-0.3823,-0.3823,-0.3761,-0.3761,-0.376]}]]